RH
100 81 85 100 100 100 99 100 100 88 79 53 58 51 49 66 98 90 84 85 100 85 57 21 8 10 11 12 14 14 13 18 11 9 8 8 7 7 7 7 7 7 7 7 7
82 60 100 100 100 100 100 100 99 81 66 64 57 52 60 61 100 64 87 91 100 84 57 24 9 10 10 13 15 15 14 20 16 12 10 10 9 8 8 7 7 7 9 10 9
63 71 80 90 100 100 90 84 78 73 81 82 62 62 62 67 81 84 100 100 99 84 64 27 9 10 10 13 16 16 16 20 22 16 13 12 11 11 10 10 10 11 10 10 10
100 100 86 100 100 83 80 79 72 77 99 100 75 71 65 55 93 100 100 100 96 85 64 24 9 10 10 11 15 16 17 19 26 19 17 14 12 11 11 11 11 10 11 10 10
100 100 95 84 78 75 71 91 80 95 100 94 77 62 56 61 97 100 100 100 99 78 66 22 10 10 11 10 12 17 18 18 24 23 18 16 15 15 15 14 15 18 20 19 17
85 95 68 54 50 52 56 68 87 100 93 100 69 52 59 78 98 100 100 100 97 82 63 39 12 12 13 12 12 14 17 19 17 25 24 22 21 21 18 19 21 22 23 24 26
100 94 83 81 73 69 92 100 99 98 99 86 60 61 75 72 81 100 100 100 96 80 72 47 13 12 14 14 14 13 12 15 17 19 24 26 25 28 25 24 23 23 24 26 27
100 92 72 56 73 99 100 79 84 100 82 59 63 69 66 94 100 100 100 100 96 83 79 42 15 14 15 14 15 14 13 12 12 15 21 26 26 27 27 27 30 35 44 45 41
98 99 86 100 92 95 100 100 100 85 72 60 72 81 98 100 100 100 100 100 91 81 81 49 18 17 16 16 16 16 15 14 13 12 14 20 25 28 26 28 32 38 53 66 63
97 91 100 100 100 100 100 66 100 100 74 57 60 100 100 100 93 100 100 100 85 71 81 65 26 18 18 18 18 18 18 17 15 14 15 18 22 26 26 30 34 39 57 72 82
100 100 100 100 100 68 100 100 82 60 76 100 100 100 100 99 100 100 100 99 76 61 80 79 32 20 19 19 20 20 20 20 20 20 19 20 20 22 26 29 32 36 54 70 76
100 98 92 95 84 90 88 59 76 96 100 100 100 100 100 94 95 100 100 100 74 60 74 93 83 31 22 20 20 21 21 21 21 21 20 21 21 23 26 28 30 41 65 76 81
100 100 100 98 73 80 100 92 100 100 100 100 100 100 100 99 100 100 100 97 75 64 82 93 98 74 33 25 19 22 22 21 22 22 23 22 24 25 26 28 36 62 86 91 91
100 96 81 75 100 100 100 100 100 100 100 100 100 99 94 94 100 100 100 93 71 58 56 69 99 94 92 87 27 21 23 23 24 25 27 40 57 68 56 59 72 89 93 96 100
93 81 83 100 100 100 100 100 100 100 100 99 96 90 90 100 100 100 100 96 70 48 72 88 73 84 83 86 74 32 31 41 33 29 31 53 72 92 82 85 93 96 96 100 100
100 100 100 100 100 96 85 89 96 86 74 73 84 91 100 100 100 100 100 96 65 47 84 99 98 86 94 100 100 91 78 68 66 57 68 70 75 99 70 96 97 96 100 100 100
100 100 100 100 91 91 100 90 76 80 85 90 88 98 100 100 100 100 100 85 59 50 85 100 90 98 99 100 100 100 100 97 87 87 91 99 98 100 100 97 94 98 100 100 100
90 87 90 85 74 73 76 82 86 94 95 100 100 98 100 100 100 100 100 98 81 76 89 93 98 90 97 98 96 96 84 83 71 92 98 100 100 100 100 100 72 71 76 90 100
76 78 76 84 75 75 82 76 94 100 95 97 81 93 98 95 100 100 100 97 88 81 60 72 94 68 79 87 86 93 92 90 67 74 66 100 100 100 100 93 76 67 67 70 84
92 98 93 86 77 87 82 71 65 73 86 90 88 94 86 78 82 88 100 99 94 85 74 64 69 93 73 77 81 83 84 84 77 57 60 79 98 100 100 97 65 58 56 61 95
100 100 100 100 100 100 100 98 88 95 100 100 92 92 83 76 74 72 89 90 89 82 76 74 61 75 70 78 71 63 61 60 62 78 68 65 87 100 100 93 64 75 74 77 98
79 97 100 100 100 100 100 100 100 96 100 100 100 100 100 100 100 96 90 77 72 75 86 80 85 100 100 99 85 76 77 80 58 64 73 69 62 100 97 100 100 100 90 86 94
100 100 100 100 100 100 100 100 100 100 100 100 100 100 100 97 89 100 100 87 70 68 66 83 90 99 100 100 100 100 100 100 93 93 99 71 92 100 100 100 100 100 100 100 100
96 97 97 87 81 92 95 99 95 97 100 100 100 100 93 89 88 95 94 88 86 78 76 81 99 90 89 99 97 100 100 100 100 100 99 94 76 100 100 100 100 100 97 99 100
70 73 78 71 66 62 71 77 82 87 85 91 100 99 86 85 90 78 89 100 100 99 96 93 93 88 79 82 83 74 80 99 100 100 100 98 97 100 100 100 100 100 99 100 100
48 49 49 50 51 52 54 60 56 61 68 68 74 87 82 78 66 62 58 62 67 75 85 92 79 77 87 99 87 76 100 100 100 100 97 100 91 99 84 91 92 92 100 100 93
62 62 66 64 68 65 54 49 52 50 46 49 56 62 63 68 62 55 56 58 52 55 67 68 75 71 69 86 72 70 92 96 95 80 87 94 77 80 78 87 100 89 75 95 99
Wind_Speed
59 54 60 50 48 47 46 42 41 46 48 50 47 48 49 58 53 54 54 52 40 27 24 22 22 19 22 22 23 24 26 23 18 14 11 10 10 11 12 13 16 18 18 18 19
61 59 58 49 51 43 45 41 45 48 47 48 46 50 49 55 52 54 54 49 39 25 23 21 20 18 20 21 21 22 25 22 18 16 15 14 13 12 12 12 11 11 14 16 17
61 60 58 56 43 45 47 48 49 47 48 45 46 49 51 56 53 60 50 44 33 25 24 20 20 18 20 20 21 20 24 21 19 17 15 14 13 11 10 11 11 13 15 16 17
56 56 53 50 45 52 51 48 47 47 49 45 47 50 54 56 53 57 48 39 32 24 23 20 19 18 17 18 20 21 23 20 17 14 14 13 11 10 10 10 11 13 14 14 15
52 55 56 53 53 49 48 48 46 47 47 46 47 52 54 53 55 56 47 37 32 25 22 20 20 20 18 18 19 21 21 21 18 15 12 12 13 12 13 13 14 17 19 19 20
56 54 50 54 53 47 46 47 45 44 45 47 50 54 56 53 52 53 44 38 31 26 24 22 22 21 21 19 19 19 21 21 18 16 15 15 16 18 17 17 19 21 22 24 26
53 51 47 47 48 49 47 45 43 47 46 47 51 52 53 52 52 49 42 38 31 27 25 23 24 24 23 22 21 22 23 22 21 19 18 19 17 19 20 22 24 25 25 27 30
46 48 49 44 51 49 45 46 47 44 47 50 49 51 51 50 50 42 41 38 31 29 25 25 26 27 25 27 26 25 25 26 25 23 22 24 24 24 26 28 30 30 31 32 33
47 48 48 50 47 45 44 45 44 46 48 50 51 49 50 47 47 42 40 37 31 29 28 27 29 30 28 30 30 28 28 29 27 27 27 26 28 28 29 31 33 34 34 35 36
43 45 46 43 42 41 37 45 44 45 48 49 49 48 47 46 44 40 39 34 32 32 30 29 32 32 31 31 30 30 29 30 30 29 29 29 30 30 31 33 35 36 35 36 38
41 42 43 35 41 43 40 42 46 50 49 45 46 48 47 41 40 40 38 33 32 32 31 32 34 33 33 32 31 30 30 30 31 31 31 32 32 33 35 37 38 38 39 40 40
38 43 46 43 38 38 41 48 49 47 46 47 47 45 43 41 40 42 39 35 34 34 34 35 37 35 36 36 34 32 33 33 33 32 32 33 35 35 38 41 42 42 43 43 45
44 45 46 42 41 49 47 49 48 48 46 46 47 47 43 42 44 42 41 36 35 35 33 34 36 38 37 38 38 35 35 34 35 34 35 35 38 39 41 43 44 44 45 45 45
42 42 39 39 45 46 47 49 48 48 49 50 50 47 43 43 43 41 40 37 36 36 35 37 37 39 39 40 40 40 38 37 37 35 36 36 39 41 42 44 45 46 46 47 47
42 45 46 49 50 49 48 49 48 51 53 51 48 45 43 42 41 42 42 38 38 36 35 34 34 35 36 38 40 43 43 41 40 38 38 42 39 47 41 44 47 48 47 48 47
50 49 49 49 47 47 47 50 52 53 52 49 45 44 41 41 42 44 43 39 38 37 35 37 39 39 41 42 44 45 46 45 45 42 39 45 40 46 46 48 51 51 48 47 49
51 48 46 45 48 50 51 55 55 51 46 44 44 43 41 41 43 45 43 41 39 37 38 39 39 41 44 45 44 45 48 47 45 44 43 46 42 48 53 50 51 49 46 47 52
46 48 51 53 54 55 56 54 50 45 44 42 41 42 41 42 44 44 44 44 43 42 43 43 43 42 43 41 38 40 39 41 35 39 37 38 39 49 54 54 50 51 51 52 55
53 53 56 55 57 53 51 50 47 45 46 44 44 43 42 41 42 43 45 46 46 46 46 47 50 47 47 44 43 42 41 42 39 36 32 39 41 48 60 57 53 53 53 56 58
50 46 47 49 47 44 47 49 49 48 48 48 45 44 44 41 40 43 46 47 46 46 46 49 48 51 52 53 53 52 51 50 48 42 42 42 42 45 57 58 59 57 55 56 59
43 43 46 46 42 44 46 45 44 45 43 44 44 45 45 43 43 43 46 47 47 48 48 49 50 55 56 55 57 56 54 53 53 54 51 42 42 51 58 64 62 60 60 60 60
50 47 46 47 46 45 44 44 44 43 42 43 45 44 42 41 41 43 45 47 49 49 50 51 48 55 59 61 60 59 57 57 57 56 54 48 37 54 60 67 67 66 67 63 61
50 51 51 51 52 50 49 49 47 48 48 48 48 49 48 48 47 48 49 53 52 53 52 53 51 53 59 61 63 62 64 64 65 63 60 57 49 58 65 69 72 70 70 68 66
53 53 53 54 55 55 56 56 56 58 56 54 55 56 55 54 55 53 57 56 58 59 58 56 54 57 56 58 58 57 59 63 65 65 67 60 58 62 66 72 73 74 73 71 71
57 57 58 58 59 60 60 60 61 61 60 60 60 63 62 58 61 60 60 62 62 64 65 65 62 65 61 64 66 65 66 70 73 73 75 65 72 74 75 77 78 81 80 77 76
58 59 60 62 63 63 63 66 67 66 63 64 63 68 66 64 67 66 67 68 69 69 70 70 69 71 64 71 73 67 67 72 76 77 81 83 74 85 80 83 84 86 84 82 84
47 47 48 49 51 57 63 67 69 70 70 69 69 70 70 70 69 66 66 65 67 70 73 72 72 73 63 70 73 68 73 77 78 81 88 92 90 86 88 90 91 92 90 87 86
Wind_Direction
242 252 256 252 254 257 264 270 283 290 294 297 297 299 308 311 316 319 324 323 319 319 320 324 331 340 355 352 353 354 358 359 1 354 350 341 335 328 322 318 313 310 311 314 314
241 249 246 246 247 260 262 268 280 285 288 291 293 297 304 314 311 319 321 319 314 316 316 320 325 337 352 352 347 349 353 354 351 350 350 346 336 328 322 323 320 321 323 324 328
241 241 248 251 251 257 262 268 277 279 283 286 291 296 303 312 310 315 314 314 309 315 316 313 319 329 345 349 342 345 349 350 349 346 344 346 342 340 332 333 337 338 340 338 335
232 233 246 255 249 258 262 267 273 278 280 283 289 293 301 308 307 310 311 307 303 306 310 306 311 316 334 344 339 339 345 345 349 338 338 337 336 333 332 334 335 331 330 327 324
231 236 237 248 252 255 260 266 272 274 279 282 290 295 302 308 306 304 309 302 300 305 305 301 304 311 322 335 336 332 335 342 347 336 333 334 338 331 327 322 319 316 314 314 313
237 235 247 252 251 256 263 266 265 271 276 282 292 296 299 303 302 300 306 300 296 299 299 299 303 304 311 323 326 325 327 335 336 338 326 325 322 319 315 312 309 308 309 308 309
232 239 242 246 251 259 260 263 265 271 275 285 292 295 296 298 297 298 300 294 293 297 294 296 298 300 303 308 312 317 315 320 325 327 324 318 312 312 306 305 305 305 304 304 305
236 242 247 249 251 255 258 260 267 271 285 291 293 294 293 292 294 296 298 291 294 295 293 292 291 292 300 303 303 306 307 310 312 316 317 316 314 311 311 313 314 314 312 309 309
236 241 245 246 249 252 254 260 271 277 278 284 287 285 286 289 294 297 294 288 291 294 291 286 288 290 294 297 300 300 302 304 305 306 309 310 311 309 314 315 315 318 317 313 309
233 240 242 243 246 255 262 265 264 268 276 280 279 280 286 291 295 291 289 287 290 293 290 285 285 288 292 294 297 299 300 301 302 304 306 306 303 307 311 312 314 315 316 315 313
232 239 246 249 247 255 253 258 262 271 270 273 276 281 285 289 288 288 287 286 290 292 291 286 286 287 288 289 293 298 300 301 301 301 300 302 301 304 307 309 311 312 312 314 313
235 230 236 235 247 251 255 259 264 268 269 272 276 280 282 283 285 285 283 282 286 290 294 289 282 286 287 289 291 296 300 300 301 300 300 303 302 303 303 305 308 310 309 310 310
227 231 245 246 252 255 252 257 265 265 269 272 275 275 279 279 280 281 278 279 285 289 291 296 289 284 289 292 289 292 296 299 302 303 303 304 304 304 302 302 304 306 307 309 310
233 237 241 248 251 251 255 260 264 267 268 272 276 277 274 274 277 278 275 280 284 286 289 295 300 294 291 292 289 289 293 295 299 303 303 303 304 303 301 301 303 304 306 308 309
236 240 242 244 249 253 256 260 263 268 270 273 273 275 273 273 274 273 273 277 282 283 286 291 296 298 301 298 291 288 290 292 296 298 301 300 306 302 299 303 303 303 304 306 307
235 238 242 247 252 255 261 263 266 270 272 271 269 268 268 272 272 272 270 272 277 278 284 290 290 293 299 299 295 289 290 290 291 295 298 297 305 302 301 302 303 303 302 302 307
242 246 250 254 262 264 265 267 269 269 266 265 263 261 267 271 272 272 270 270 272 275 280 285 285 292 296 297 296 295 293 292 291 292 294 298 306 295 298 301 302 302 301 302 306
253 259 262 264 266 266 266 264 264 264 261 261 261 261 266 272 275 273 272 271 271 274 277 281 286 289 294 293 291 293 294 293 294 294 298 299 302 297 296 298 298 298 299 302 303
260 262 263 262 262 264 264 263 258 258 260 259 261 263 265 270 272 273 273 275 277 280 282 283 284 283 283 290 290 290 291 290 290 289 292 295 296 301 298 296 295 296 298 300 301
256 254 261 266 267 266 266 265 265 262 263 266 263 264 263 266 273 274 275 276 279 279 281 281 279 282 284 285 287 288 290 289 289 287 289 295 297 293 293 296 295 298 297 299 301
253 255 253 253 256 262 258 260 262 262 262 263 267 265 269 271 274 275 275 278 280 282 283 282 282 282 285 288 290 291 292 291 294 292 289 289 294 292 294 293 294 295 295 297 300
254 253 256 258 260 261 261 260 261 261 263 263 266 267 269 273 275 278 278 280 282 285 285 283 283 284 285 287 288 290 291 291 292 292 294 290 293 291 289 291 292 293 295 295 295
251 252 254 255 260 259 259 260 260 261 262 263 265 265 265 268 271 274 275 278 280 283 282 282 283 282 283 285 288 289 290 292 291 290 289 291 291 287 288 289 291 294 294 293 293
251 251 253 255 258 258 260 262 264 265 264 262 264 266 268 271 272 271 274 277 280 280 279 278 279 281 282 285 287 291 295 295 293 292 287 294 289 290 288 288 290 291 293 294 290
255 256 257 259 263 264 263 262 262 262 265 266 266 267 269 270 270 271 272 275 278 280 280 279 279 281 283 283 283 283 287 290 290 291 292 288 290 284 285 287 288 290 292 290 289
260 259 261 264 265 267 266 265 265 265 265 267 267 267 267 267 269 271 272 273 274 277 279 280 282 282 283 283 285 289 291 286 287 290 290 288 286 286 286 287 287 286 285 287 290
262 262 263 269 271 273 272 269 270 272 269 267 270 269 269 269 271 273 274 277 280 281 281 283 283 283 284 281 283 288 283 286 286 289 289 289 290 287 288 289 286 285 287 290 290